Home > Weather > Prenzlau > Past weeks

Flag for Germany Weather for the Past 2 Weeks in Prenzlau, Brandenburg, Germany

Now
41 °F

Clear.


Feels Like: 35 °F
Forecast: 42 / 46 °F
Wind: 10 mph from South

Location: Szczecin Airport

Current Time: Feb 8, 2016 at 3:52:52 AM

Latest Report: Feb 8, 2016 at 3:00 AM


Visibility: 10 mi

Pressure: 29.62 "Hg

Humidity: 93%

Dew point: 39 °F

Location of PrenzlauLocation

Historic Weather in Prenzlau — Graph

°F

Prenzlau Temperature Yesterday

Maximum temperature yesterday: 52 °F (at 1:00 PM)
Minimum temperature yesterday: 37 °F (at 5:30 AM)
Average temperature yesterday: 44 °F

High & Low Weather Summary for the Past Weeks

 TemperatureHumidityPressure
High52 °F (Feb 7, 1:00 PM)100% (Jan 24, 2:00 AM)30.42 "Hg (Jan 24, 2:00 AM)
Low30 °F (Jan 24, 2:00 AM)54% (Feb 2, 3:00 PM)29.47 "Hg (Jan 30, 7:30 PM)
Average42 °F84%29.90 "Hg
* Reported Jan 24 2:00 AM — Feb 8 2:00 AM, Prenzlau, Weather by CustomWeather, © 2016

Note: Actual official high and low records may vary slightly from our data, if they occured in-between our weather recording intervals... More about our weather records

Advertising

Prenzlau Weather History for the Previous 24 Hours

 ConditionsComfort  
Time TempWeatherWind HumidityBarometerVisibility
2:00 AM
Mon, Feb 8
41 °FPassing clouds.10 mph93%29.62 "HgN/A
1:30 AM41 °FClear.8 mph93%29.62 "Hg10 mi
1:00 AM41 °FClear.6 mph93%29.62 "Hg10 mi
12:00 AM43 °FLight rain. Passing clouds.6 mph87%29.62 "HgN/A
11:30 PM
Sun, Feb 7
43 °FLight rain. Passing clouds.9 mph93%29.65 "Hg4 mi
11:00 PM43 °FLight rain. Passing clouds.10 mph87%29.65 "HgN/A
10:30 PM43 °FLight rain. Passing clouds.5 mph81%29.62 "HgN/A
10:00 PM43 °FPassing clouds.6 mph81%29.62 "HgN/A
9:30 PM43 °FPassing clouds.7 mph81%29.62 "HgN/A
9:00 PM43 °FClear.9 mph81%29.59 "Hg10 mi
8:30 PM43 °FClear.9 mph81%29.59 "Hg10 mi
8:00 PM45 °FClear.8 mph76%29.59 "Hg10 mi
7:30 PM45 °FClear.13 mph76%29.59 "Hg10 mi
7:00 PM45 °FClear.12 mph76%29.59 "Hg10 mi
6:30 PM45 °FClear.10 mph76%29.59 "Hg10 mi
6:00 PM46 °FClear.12 mph71%29.59 "Hg10 mi
5:30 PM46 °FClear.12 mph71%29.59 "Hg10 mi
5:00 PM48 °FClear.13 mph66%29.59 "Hg10 mi
4:30 PM48 °FSunny.10 mph66%29.59 "Hg10 mi
4:00 PM50 °FSunny.10 mph67%29.59 "Hg10 mi
3:30 PM50 °FSunny.12 mph67%29.59 "Hg10 mi
3:00 PM52 °FSunny.10 mph62%29.59 "Hg10 mi
2:30 PM52 °FSunny.13 mph58%29.59 "Hg10 mi
2:00 PM52 °FSunny.13 mph58%29.59 "Hg10 mi
1:30 PM52 °FSunny.14 mph58%29.59 "Hg10 mi
1:00 PM52 °FSunny.13 mph58%29.62 "Hg10 mi
12:30 PM50 °FSunny.13 mph62%29.62 "Hg10 mi
12:00 PM48 °FSunny.13 mph66%29.62 "Hg10 mi
11:30 AM48 °FSunny.13 mph62%29.65 "Hg10 mi
11:00 AM46 °FSunny.15 mph66%29.65 "Hg10 mi
10:30 AM45 °FSunny.14 mph71%29.65 "Hg10 mi
10:00 AM43 °FSunny.15 mph76%29.65 "Hg10 mi
9:30 AM41 °FSunny.16 mph76%29.65 "Hg10 mi
9:00 AM41 °FSunny.15 mph76%29.68 "Hg10 mi
8:30 AM41 °FSunny.15 mph76%29.65 "Hg10 mi
8:00 AM39 °FSunny.13 mph81%29.65 "Hg10 mi
7:30 AM37 °FClear.14 mph87%29.68 "Hg10 mi
7:00 AM39 °FClear.12 mph87%29.68 "Hg10 mi
6:30 AM39 °FClear.9 mph87%29.68 "Hg10 mi
6:00 AM39 °FClear.10 mph87%29.68 "Hg10 mi
5:30 AM37 °FClear.9 mph93%29.71 "Hg10 mi
5:00 AM39 °FClear.8 mph87%29.71 "Hg10 mi
4:00 AM39 °FClear.10 mph87%29.71 "Hg10 mi
3:30 AM39 °FClear.10 mph87%29.74 "Hg10 mi
3:00 AM39 °FClear.10 mph87%29.74 "Hg10 mi
Weather by CustomWeather, © 2016

See weather overviewHow to use our weather pages